[[{"header":{"parameterUnit":"m.s-1","parameterCategory":1,"la1":30.2991,"la2":30.254,"lo1":-89.0895,"lo2":-89.0444,"dy":0.0017,"dx":0.0017,"nx":28,"ny":28,"refTime":"2024-11-27T09:00:00:Z","depth":0,"parameterNumber":2,"parameterNumberName":"U-component_of_WINDS"},"data":[0,0,0,0,0,0,0,0,0,0,0,0,0,0,0,0,0,0,0,0,0,0,0,0,0,0,0,0,0,0,0,0,0,0,0,0,0,0,0,0,0,0,0,0,0,0,0,0,0,0,0,0,0,0,0,0,0,0,4.6852,4.6854,0,4.702,4.7022,4.7024,4.7009,4.7006,4.7004,4.7001,4.7176,4.7183,4.719,0,0,0,0,0,0,0,0,0,0,0,0,0,4.6519,4.6525,4.6852,4.6854,4.6856,4.702,4.7022,4.7025,4.7009,4.7006,4.7003,4.7,4.7174,4.7182,4.719,0,0,0,0,0,0,0,0,0,0,0,0,0,4.6673,4.6527,4.6851,4.6868,4.6871,4.702,4.7022,4.7025,4.701,4.7006,4.7002,4.6999,4.7171,4.7181,4.7192,4.7335,0,0,4.7224,4.7229,0,0,0,0,0,0,0,0,4.6664,4.6685,4.6864,4.6867,4.6871,4.6989,4.6969,4.7129,4.7011,4.6957,4.7001,4.6997,4.7117,4.7132,4.7172,4.7343,4.7351,4.7225,4.7231,4.7236,4.7239,0,0,0,0,0,0,0,4.6654,4.6678,4.6918,4.6866,4.6871,4.6868,4.6885,4.6999,4.7057,4.6962,4.6961,4.6981,4.7119,4.7162,4.7176,4.7353,4.7225,4.7234,4.7241,4.7245,4.7649,4.7654,0,0,0,0,0,0,4.6639,4.6669,4.6913,4.6924,4.6756,4.6877,4.6897,4.6955,4.7056,4.7067,4.6984,4.698,4.7146,4.7164,4.7182,4.7356,4.7236,4.7246,4.7252,4.7645,4.765,4.7655,0,0,0,0,0,0,4.6632,4.6661,4.6906,4.6796,4.6827,4.6887,4.6953,4.6961,4.7004,4.7073,4.7083,4.7018,4.7143,4.7167,4.7297,4.7362,4.7251,4.726,4.764,4.7647,4.7653,4.7704,0,0,0,0,0,0,4.6622,4.6658,4.6713,4.6798,4.6833,4.7018,4.6957,4.6967,4.7022,4.7018,4.7107,4.7118,4.7142,4.7281,4.7307,4.7374,4.7268,4.7634,4.7643,4.7651,4.7697,4.7712,4.7724,0,0,0,0,0,4.661,4.6721,4.6716,4.6745,4.6903,4.7021,4.7042,4.7066,4.7028,4.7083,4.7127,4.7115,4.7351,4.7294,4.7324,4.7395,4.763,4.7641,4.765,4.7691,4.7709,4.7724,0,0,0,0,0,0,4.6643,4.6733,4.6727,4.6869,4.6938,4.7018,4.7089,4.7085,4.7167,4.7159,4.7187,4.7208,4.7338,4.738,4.7315,4.7539,4.7485,4.7502,4.7506,4.7524,4.7537,4.7524,4.7277,0,0,0,0,0,4.6667,4.6755,4.6829,4.6947,4.6981,4.7029,4.7082,4.7095,4.7168,4.7197,4.725,4.7322,4.7412,4.747,4.7557,4.7703,4.7722,4.7767,4.7781,4.7792,4.7805,4.7885,4.7905,4.7688,4.7688,4.7687,0,0,4.6717,4.6776,4.6831,4.6955,4.7009,4.71,4.7054,4.7153,4.722,4.7212,4.7337,4.7379,4.7461,4.7599,4.7662,4.7638,4.7869,4.7804,4.7812,4.782,4.7897,4.7917,4.7936,4.7694,4.7693,4.7692,0,0,4.6854,4.6908,4.7012,4.7067,4.715,4.7182,4.7207,4.7289,4.7316,4.7441,4.7437,4.7519,4.7673,4.7731,4.7781,4.794,4.7932,4.7968,4.8039,4.8117,4.8134,4.8149,4.8205,4.8225,4.7981,4.7981,4.7982,0,4.6905,4.7041,4.7066,4.7165,4.7219,4.7216,4.7321,4.7374,4.7482,4.752,4.749,4.7683,4.7738,4.789,4.7928,4.7969,4.7998,4.7957,4.8129,4.8145,4.8159,4.8213,4.8234,4.7985,4.7985,4.7984,4.7984,0,4.71,4.7195,4.7269,4.7372,4.7435,4.7537,4.7577,4.7638,4.7646,4.768,4.7808,4.7874,4.7973,4.8011,4.802,4.8164,4.8146,4.8123,4.8069,4.8183,4.8234,4.8255,4.799,4.7989,4.7988,4.7987,0,0,4.7262,4.7376,4.7403,4.7449,4.7541,4.7615,4.7717,4.7813,4.7865,4.794,4.8026,4.8157,4.8136,4.8192,4.8208,4.8276,4.8397,4.8245,4.8247,4.827,4.8558,4.8574,4.8597,4.8393,4.8397,4.84,4.8551,0,4.7407,4.7586,4.7611,4.7769,4.7857,4.7855,4.7944,4.801,4.8045,4.8125,4.8164,4.8256,4.8222,4.8256,4.8324,4.8368,4.8455,4.8358,4.8473,4.8476,4.845,4.8624,4.8641,4.878,4.8571,4.8575,4.8577,0,4.7599,4.7678,4.7845,4.7925,4.7962,4.8041,4.8132,4.8208,4.8283,4.8304,4.8367,4.8375,4.8481,4.8424,4.857,4.8503,4.8552,4.8581,4.8587,4.8597,4.8532,4.8638,4.8825,4.8846,4.8609,4.8606,4.8604,0,4.7699,4.7847,4.7966,4.8006,4.8102,4.8157,4.82,4.8271,4.8327,4.8407,4.8443,4.8535,4.8584,4.8655,4.8687,4.8643,4.8831,4.8777,4.8851,4.885,4.8889,4.8886,4.9086,4.8923,4.8923,4.8922,4.8922,0,4.7857,4.7959,4.8012,4.8085,4.8199,4.8227,4.834,4.8381,4.8444,4.8525,4.853,4.8606,4.8644,4.8726,4.8752,4.8869,4.8892,4.8911,4.8917,4.891,4.8908,4.8942,4.8932,4.8928,4.8927,4.8926,4.8925,0,4.7987,4.8026,4.8155,4.8235,4.8258,4.8338,4.8407,4.8478,4.8513,4.8616,4.8642,4.8696,4.8793,4.8832,4.8952,4.8969,4.9103,4.9101,4.9077,4.9078,4.9149,4.9141,4.9377,4.9409,4.9226,4.9228,4.9229,0,4.8085,4.8163,4.8251,4.8305,4.8349,4.8437,4.8494,4.8526,4.8585,4.8677,4.8737,4.8833,4.8912,4.9067,4.9118,4.9209,4.9209,4.9285,4.9223,4.9213,4.9209,4.9203,4.921,4.9296,4.9298,4.93,4.9301,0,4.8254,4.8269,4.8351,4.844,4.8508,4.858,4.865,4.8694,4.8736,4.8803,4.8902,4.8963,4.9084,4.918,4.9274,4.9318,4.9317,4.932,4.9342,4.9335,4.9317,4.9327,4.9107,4.9314,4.9313,4.9312,4.9311,4.9311,4.837,4.8439,4.8511,4.8602,4.8658,4.8724,4.8794,4.8837,4.892,4.902,4.9034,4.914,4.9213,4.9339,4.9387,4.947,4.9451,4.9482,4.949,4.9497,4.9501,4.9305,4.9488,4.9488,4.9487,4.9487,4.9487,0,4.8537,4.8584,4.8668,4.8765,4.8837,4.8829,4.8906,4.8967,4.9059,4.9127,4.9205,4.9318,4.9411,4.9469,4.9563,4.9618,4.962,4.9642,4.9637,4.9647,4.9514,4.9485,4.9639,4.9639,4.9639,4.9639,4.9639,4.9639,4.8633,4.8749,4.8774,4.8918,4.8964,4.9067,4.9111,4.9172,4.9226,4.9352,4.9429,4.9466,4.953,4.9629,4.9714,4.9729,4.9762,4.9785,4.9798,4.9673,4.9657,4.9642,4.9615,4.9793,4.9793,4.9925,4.9926,4.9927]},{"header":{"parameterUnit":"m.s-1","parameterCategory":1,"la1":30.2991,"la2":30.254,"lo1":-89.0895,"lo2":-89.0444,"dy":0.0017,"dx":0.0017,"nx":28,"ny":28,"refTime":"2024-11-27T09:00:00:Z","depth":0,"parameterNumber":3,"parameterNumberName":"V-component_of_WINDS"},"data":[0,0,0,0,0,0,0,0,0,0,0,0,0,0,0,0,0,0,0,0,0,0,0,0,0,0,0,0,0,0,0,0,0,0,0,0,0,0,0,0,0,0,0,0,0,0,0,0,0,0,0,0,0,0,0,0,0,0,4.1128,4.1129,0,4.123,4.1231,4.1232,4.1203,4.1201,4.1198,4.1196,4.1298,4.1302,4.1307,0,0,0,0,0,0,0,0,0,0,0,0,0,4.0904,4.0909,4.1128,4.1129,4.1131,4.123,4.1231,4.1233,4.1203,4.12,4.1198,4.1195,4.1296,4.1301,4.1307,0,0,0,0,0,0,0,0,0,0,0,0,0,4.1003,4.091,4.1128,4.1128,4.1129,4.123,4.1231,4.1233,4.1204,4.12,4.1197,4.1194,4.1294,4.1301,4.1308,4.1414,0,0,4.1329,4.1332,0,0,0,0,0,0,0,0,4.0998,4.1012,4.1126,4.1128,4.1129,4.12,4.1189,4.1293,4.1204,4.1175,4.1196,4.1193,4.1268,4.1277,4.1302,4.1418,4.1423,4.133,4.1334,4.1337,4.1339,0,0,0,0,0,0,0,4.0991,4.1007,4.1168,4.1128,4.113,4.1122,4.1132,4.1209,4.1238,4.1177,4.1175,4.1188,4.1268,4.1296,4.1305,4.1424,4.133,4.1336,4.134,4.1343,4.1633,4.1636,0,0,0,0,0,0,4.0984,4.1002,4.1165,4.1171,4.1055,4.1128,4.114,4.1181,4.1237,4.1242,4.1191,4.1186,4.1285,4.1296,4.1308,4.1437,4.1337,4.1343,4.1347,4.1629,4.1634,4.1637,0,0,0,0,0,0,4.0979,4.0998,4.1161,4.1086,4.1106,4.1136,4.1181,4.1184,4.1213,4.1247,4.1251,4.1214,4.1283,4.1298,4.1388,4.144,4.1347,4.1353,4.1625,4.1631,4.1636,4.1694,0,0,0,0,0,0,4.0973,4.0997,4.1038,4.1087,4.111,4.124,4.1184,4.1189,4.1225,4.122,4.127,4.1276,4.1282,4.1378,4.1395,4.1448,4.1358,4.1621,4.1628,4.1634,4.1688,4.1701,4.1712,0,0,0,0,0,4.0965,4.105,4.104,4.106,4.1163,4.1243,4.1256,4.1263,4.1229,4.1271,4.1293,4.1274,4.1431,4.1387,4.1406,4.1462,4.1617,4.1626,4.1633,4.1682,4.1698,4.1711,0,0,0,0,0,0,4.1005,4.1056,4.1046,4.115,4.1193,4.1238,4.1291,4.128,4.1332,4.1325,4.133,4.1342,4.1434,4.1457,4.1407,4.1567,4.1519,4.1531,4.155,4.1565,4.1577,4.157,4.1364,0,0,0,0,0,4.1026,4.1088,4.1129,4.1216,4.1238,4.1261,4.1296,4.1298,4.1342,4.136,4.1388,4.1431,4.149,4.1528,4.1584,4.169,4.1701,4.1738,4.175,4.1759,4.177,4.1828,4.1845,4.1663,4.1663,4.1663,0,0,4.1069,4.1105,4.1144,4.1225,4.1259,4.1323,4.1276,4.1345,4.1393,4.137,4.1457,4.1479,4.1527,4.1626,4.1671,4.1647,4.1823,4.177,4.1777,4.1783,4.1838,4.1856,4.1871,4.1669,4.1668,4.1667,0,0,4.1182,4.1215,4.1292,4.1327,4.1379,4.1393,4.1411,4.1459,4.1474,4.1561,4.1546,4.1601,4.1702,4.1738,4.1768,4.1895,4.188,4.1913,4.1976,4.2033,4.2047,4.206,4.2106,4.2122,4.1923,4.1923,4.1923,0,4.1229,4.1326,4.1333,4.1404,4.144,4.1424,4.1501,4.1534,4.1601,4.1626,4.1599,4.1727,4.1757,4.1864,4.1895,4.1921,4.1942,4.1908,4.2045,4.2058,4.207,4.2114,4.2131,4.1927,4.1927,4.1926,4.1926,0,4.1383,4.145,4.1506,4.1573,4.1615,4.1689,4.1706,4.1748,4.1746,4.1763,4.1852,4.1889,4.1952,4.1977,4.1975,4.2085,4.2069,4.2043,4.1995,4.2091,4.2132,4.2149,4.1932,4.1931,4.193,4.1929,0,0,4.1523,4.1594,4.1614,4.1645,4.17,4.1752,4.1825,4.1889,4.1925,4.1971,4.2032,4.2119,4.2096,4.2131,4.2133,4.2183,4.2282,4.2151,4.2153,4.2175,4.2405,4.2424,4.2444,4.2271,4.2275,4.2277,4.2401,0,4.1642,4.1772,4.178,4.1898,4.196,4.1945,4.2009,4.205,4.2068,4.2122,4.2141,4.2203,4.2168,4.2189,4.2237,4.2259,4.2328,4.225,4.2328,4.2331,4.2318,4.2465,4.2486,4.2601,4.2417,4.242,4.2422,0,4.1797,4.185,4.1975,4.2023,4.2049,4.2107,4.2166,4.2218,4.2264,4.2273,4.2313,4.2308,4.2382,4.2331,4.2433,4.238,4.2412,4.2428,4.2432,4.2441,4.2383,4.2478,4.2638,4.2656,4.2447,4.2445,4.2443,0,4.1889,4.1991,4.2079,4.2105,4.2163,4.2204,4.223,4.2272,4.231,4.2362,4.2386,4.2445,4.2477,4.2522,4.2532,4.2494,4.2635,4.2584,4.2645,4.2644,4.2676,4.2674,4.2844,4.2695,4.2694,4.2694,4.2694,0,4.202,4.2097,4.2121,4.2176,4.2261,4.2269,4.2353,4.2376,4.2414,4.2472,4.2462,4.2516,4.2526,4.2582,4.259,4.2674,4.2688,4.2698,4.2699,4.2699,4.2698,4.2721,4.2714,4.2699,4.2698,4.2697,4.2696,0,4.2137,4.2157,4.2252,4.2299,4.2313,4.2374,4.2414,4.2466,4.2483,4.2556,4.2573,4.2599,4.2665,4.268,4.2757,4.2762,4.2862,4.2855,4.2848,4.2847,4.2907,4.2902,4.3099,4.3125,4.2958,4.296,4.2961,0,4.2221,4.228,4.2335,4.2373,4.2402,4.2464,4.2503,4.2513,4.2554,4.2611,4.2656,4.272,4.2773,4.2878,4.2903,4.2962,4.2957,4.3022,4.2966,4.2964,4.2959,4.2956,4.2962,4.3033,4.3035,4.3036,4.3037,0,4.2367,4.2374,4.2432,4.2493,4.2541,4.2589,4.2635,4.2667,4.2683,4.2729,4.2797,4.2838,4.2918,4.2982,4.3042,4.3067,4.3055,4.3055,4.3072,4.3073,4.3067,4.3072,4.2878,4.305,4.3049,4.3048,4.3047,4.3047,4.2471,4.2523,4.257,4.2635,4.2671,4.2714,4.2766,4.279,4.2847,4.2914,4.2916,4.299,4.3034,4.3113,4.3141,4.3199,4.3178,4.3203,4.321,4.3216,4.3222,4.3057,4.3209,4.3209,4.3209,4.3208,4.3208,0,4.2617,4.2647,4.2707,4.2773,4.2823,4.2809,4.2859,4.2903,4.2969,4.3011,4.3064,4.3142,4.3204,4.3234,4.3296,4.3336,4.3332,4.3352,4.335,4.3356,4.3236,4.3216,4.3354,4.3354,4.3354,4.3354,4.3354,4.3354,4.27,4.2788,4.2801,4.2906,4.2935,4.3009,4.3039,4.3079,4.3114,4.3202,4.3255,4.3274,4.3312,4.3376,4.3433,4.344,4.3463,4.3486,4.3491,4.3379,4.3364,4.335,4.3331,4.3491,4.3491,4.3606,4.3607,4.3607]}]]